Powrót do katalogu

STARLINK-5791

AktywnyŁącznośćVLEO
NORAD 57146·PAYLOAD·🇺🇸 United States

Wystrzelony Jun 23, 2023 z Cape Canaveral Space Force Station

Loading…

Następne Przeloty (najbliższe 24 godziny)

TLE

ŚwieżeSource: CelesTrak SupGP

Epoka: Sep 14, 2026, 21:14 UTC

1 57146C 23090AX  26257.88520833 -.00000678  00000+0 -24549-4 0  2573
2 57146  43.0035 274.7216 0002078 274.3263 315.1912 15.27571786    15

Śledź STARLINK-5791 w czasie rzeczywistym z AllMySat

Download on the App Store